[[{"header":{"parameterUnit":"m.s-1","parameterCategory":1,"la1":30.2991,"la2":30.254,"lo1":-89.0895,"lo2":-89.0444,"dy":0.0017,"dx":0.0017,"nx":28,"ny":28,"refTime":"2023-08-27T09:00:00:Z","depth":0,"parameterNumber":2,"parameterNumberName":"U-component_of_WINDS"},"data":[0,0,0,0,0,0,0,0,0,0,0,0,0,0,0,0,0,0,0,0,0,0,0,0,0,0,0,0,0,0,0,0,0,0,0,0,0,0,0,0,0,0,0,0,0,0,0,0,0,0,0,0,0,0,0,0,0,0,0.2325,0.2325,0,0.2318,0.2318,0.2317,0.2277,0.2276,0.2275,0.2274,0.2268,0.2268,0.2269,0,0,0,0,0,0,0,0,0,0,0,0,0,0.2307,0.2308,0.2325,0.2325,0.2325,0.2318,0.2317,0.2317,0.2277,0.2276,0.2275,0.2273,0.2267,0.2268,0.2269,0,0,0,0,0,0,0,0,0,0,0,0,0,0.2309,0.2308,0.2325,0.2304,0.2302,0.2318,0.2317,0.2317,0.2277,0.2276,0.2274,0.2273,0.2267,0.2268,0.2269,0.2305,0,0,0.2273,0.2273,0,0,0,0,0,0,0,0,0.2309,0.2309,0.2307,0.2306,0.2303,0.2297,0.2309,0.2313,0.2278,0.2287,0.2274,0.2272,0.2279,0.2279,0.228,0.2305,0.2305,0.2273,0.2274,0.2274,0.2274,0,0,0,0,0,0,0,0.2309,0.231,0.2322,0.2307,0.2305,0.2295,0.2294,0.2309,0.2291,0.2286,0.2283,0.2282,0.2277,0.228,0.228,0.2305,0.2273,0.2274,0.2275,0.2275,0.2358,0.2359,0,0,0,0,0,0,0.2311,0.231,0.2323,0.2322,0.2302,0.2297,0.2295,0.23,0.2291,0.2288,0.2284,0.228,0.2278,0.2279,0.228,0.232,0.2274,0.2275,0.2276,0.2356,0.2358,0.236,0,0,0,0,0,0,0.2311,0.2313,0.2323,0.2315,0.2316,0.2299,0.2305,0.2301,0.2303,0.2289,0.2286,0.2289,0.2277,0.2278,0.2299,0.232,0.2276,0.2277,0.2355,0.2357,0.2359,0.2403,0,0,0,0,0,0,0.2311,0.2313,0.2326,0.2316,0.2316,0.2342,0.2306,0.2302,0.2305,0.2301,0.2293,0.2291,0.2276,0.2298,0.23,0.232,0.2277,0.2353,0.2356,0.2358,0.2399,0.2406,0.2412,0,0,0,0,0,0.231,0.2339,0.2327,0.2329,0.2332,0.2343,0.2344,0.2326,0.2307,0.232,0.2311,0.2291,0.2317,0.23,0.2303,0.2323,0.2351,0.2355,0.2358,0.2396,0.2405,0.2412,0,0,0,0,0,0,0.2353,0.2337,0.2324,0.235,0.2348,0.2336,0.2352,0.2335,0.2339,0.2335,0.2314,0.2312,0.2336,0.2332,0.2313,0.2358,0.2331,0.2335,0.2359,0.2367,0.2373,0.2373,0.2278,0,0,0,0,0,0.2366,0.2375,0.2361,0.2386,0.2386,0.237,0.2374,0.236,0.2357,0.2357,0.2349,0.2348,0.2356,0.2361,0.2368,0.2399,0.2396,0.2415,0.2421,0.2426,0.243,0.2445,0.2453,0.2371,0.2371,0.2371,0,0,0.2392,0.2384,0.2392,0.2395,0.2391,0.2402,0.2369,0.2382,0.239,0.2359,0.2377,0.2372,0.2369,0.2395,0.2406,0.2393,0.2452,0.2431,0.2435,0.2436,0.2449,0.2457,0.2464,0.2374,0.2373,0.2373,0,0,0.2444,0.244,0.2459,0.2457,0.2452,0.2441,0.2446,0.2437,0.2432,0.245,0.2427,0.2436,0.2451,0.2449,0.245,0.2503,0.2484,0.2506,0.2538,0.2554,0.256,0.2566,0.2583,0.259,0.2509,0.251,0.251,0,0.2477,0.2491,0.2472,0.2486,0.2488,0.246,0.2479,0.2478,0.2477,0.2479,0.2463,0.248,0.2476,0.2501,0.2514,0.2516,0.2521,0.2506,0.2561,0.2566,0.2571,0.2587,0.2594,0.2512,0.2512,0.2512,0.2511,0,0.2532,0.2542,0.2559,0.2557,0.2561,0.2578,0.2561,0.2567,0.2554,0.2544,0.2564,0.2558,0.2563,0.2568,0.2555,0.2591,0.2582,0.2564,0.2537,0.2581,0.2597,0.2603,0.2516,0.2515,0.2514,0.2513,0,0,0.261,0.2597,0.2603,0.2601,0.2595,0.2603,0.2619,0.2622,0.2628,0.2628,0.2641,0.2654,0.2637,0.2638,0.2625,0.2639,0.2679,0.2619,0.2618,0.2629,0.2717,0.273,0.2737,0.2667,0.2669,0.2669,0.2717,0,0.2659,0.2684,0.2667,0.2696,0.2705,0.2679,0.2692,0.269,0.2682,0.2689,0.2681,0.269,0.2667,0.2668,0.268,0.2671,0.2696,0.2668,0.2679,0.2679,0.2678,0.2745,0.2759,0.2804,0.2723,0.2724,0.2725,0,0.2719,0.2721,0.275,0.2741,0.2744,0.2757,0.2758,0.2766,0.2763,0.2756,0.2758,0.2741,0.2756,0.273,0.2751,0.2732,0.2736,0.2732,0.2734,0.2733,0.2704,0.2745,0.2818,0.2824,0.2734,0.2733,0.2733,0,0.2772,0.2782,0.28,0.28,0.279,0.2799,0.2796,0.2791,0.2794,0.2796,0.2798,0.2803,0.2805,0.2809,0.2794,0.2776,0.2816,0.2789,0.2811,0.2811,0.2819,0.2818,0.2892,0.2824,0.2824,0.2824,0.2823,0,0.2828,0.2846,0.2823,0.2835,0.2855,0.2835,0.2856,0.285,0.2846,0.2856,0.2834,0.2844,0.2824,0.2832,0.2821,0.2839,0.2841,0.2836,0.2832,0.2837,0.2837,0.2838,0.2834,0.2825,0.2825,0.2825,0.2824,0,0.2889,0.2875,0.2893,0.2882,0.2879,0.2895,0.2885,0.2895,0.2886,0.2899,0.2901,0.2886,0.2894,0.288,0.2887,0.288,0.2905,0.2897,0.2905,0.2903,0.2925,0.2922,0.3,0.3009,0.2936,0.2937,0.2938,0,0.2925,0.2938,0.2929,0.2933,0.2931,0.2939,0.2941,0.2923,0.2927,0.2925,0.2935,0.2942,0.2945,0.296,0.295,0.2955,0.2947,0.2974,0.2947,0.2951,0.2946,0.2945,0.2945,0.2979,0.298,0.298,0.2981,0,0.299,0.2982,0.2986,0.2989,0.2993,0.2994,0.2994,0.2999,0.298,0.2985,0.2993,0.2996,0.3003,0.3009,0.3012,0.3008,0.2991,0.299,0.2994,0.2999,0.3002,0.2999,0.2919,0.2987,0.2987,0.2986,0.2986,0.2986,0.3038,0.3049,0.3043,0.3049,0.3047,0.3047,0.3056,0.3047,0.3053,0.3056,0.3046,0.3056,0.3052,0.3054,0.3053,0.3061,0.3049,0.3056,0.3058,0.306,0.3063,0.3002,0.3061,0.3061,0.3061,0.3061,0.3061,0,0.3101,0.3096,0.3102,0.3101,0.3106,0.309,0.3089,0.3094,0.3102,0.3101,0.3105,0.3113,0.3119,0.3111,0.3115,0.3123,0.3115,0.3125,0.3123,0.3123,0.3074,0.3068,0.3131,0.3131,0.3131,0.3131,0.3131,0.3131,0.3134,0.315,0.3142,0.3157,0.3152,0.3161,0.3162,0.3162,0.316,0.317,0.3175,0.3169,0.3164,0.3168,0.3173,0.3171,0.3173,0.3185,0.3179,0.3133,0.3126,0.312,0.3114,0.3186,0.3186,0.3227,0.3228,0.3228]},{"header":{"parameterUnit":"m.s-1","parameterCategory":1,"la1":30.2991,"la2":30.254,"lo1":-89.0895,"lo2":-89.0444,"dy":0.0017,"dx":0.0017,"nx":28,"ny":28,"refTime":"2023-08-27T09:00:00:Z","depth":0,"parameterNumber":3,"parameterNumberName":"V-component_of_WINDS"},"data":[0,0,0,0,0,0,0,0,0,0,0,0,0,0,0,0,0,0,0,0,0,0,0,0,0,0,0,0,0,0,0,0,0,0,0,0,0,0,0,0,0,0,0,0,0,0,0,0,0,0,0,0,0,0,0,0,0,0,0.5071,0.5073,0,0.5294,0.5296,0.5299,0.5383,0.5382,0.5381,0.5381,0.5606,0.5613,0.5619,0,0,0,0,0,0,0,0,0,0,0,0,0,0.4714,0.472,0.5071,0.5073,0.5076,0.5293,0.5296,0.5299,0.5383,0.5382,0.5381,0.5381,0.5604,0.5612,0.562,0,0,0,0,0,0,0,0,0,0,0,0,0,0.4896,0.4722,0.507,0.5144,0.5153,0.5293,0.5297,0.53,0.5383,0.5382,0.5381,0.538,0.5601,0.5611,0.5621,0.5703,0,0,0.5651,0.5656,0,0,0,0,0,0,0,0,0.4885,0.4909,0.513,0.5139,0.5149,0.531,0.5253,0.5435,0.5383,0.5296,0.5381,0.538,0.5508,0.5526,0.557,0.5713,0.5723,0.5652,0.5658,0.5662,0.5665,0,0,0,0,0,0,0,0.4873,0.49,0.5159,0.5134,0.5145,0.5165,0.519,0.5288,0.5405,0.5303,0.531,0.5335,0.5513,0.556,0.5575,0.5726,0.5652,0.5661,0.5667,0.5671,0.5946,0.5948,0,0,0,0,0,0,0.4848,0.4889,0.5152,0.5166,0.5012,0.5172,0.52,0.5259,0.5404,0.5425,0.5336,0.5338,0.5543,0.5564,0.5584,0.5689,0.5662,0.5672,0.5677,0.5945,0.5947,0.5948,0,0,0,0,0,0,0.484,0.4871,0.5143,0.5029,0.5065,0.518,0.5245,0.5264,0.5311,0.5429,0.545,0.5363,0.5543,0.557,0.5672,0.5698,0.5676,0.5685,0.5944,0.5946,0.5947,0.5899,0,0,0,0,0,0,0.4829,0.4867,0.4901,0.5029,0.5071,0.5229,0.5247,0.5269,0.5328,0.5334,0.5459,0.5479,0.5545,0.5657,0.5682,0.5711,0.5693,0.5942,0.5944,0.5947,0.5899,0.5899,0.59,0,0,0,0,0,0.4816,0.4878,0.4902,0.4933,0.5115,0.523,0.5254,0.5329,0.533,0.5364,0.5439,0.5475,0.569,0.5667,0.5696,0.5728,0.5941,0.5944,0.5947,0.5899,0.5899,0.59,0,0,0,0,0,0,0.4749,0.4896,0.4925,0.5029,0.5117,0.5244,0.5289,0.5327,0.5415,0.5417,0.5505,0.5532,0.5628,0.5688,0.5659,0.5814,0.5818,0.5827,0.5772,0.5773,0.5773,0.5757,0.5701,0,0,0,0,0,0.4746,0.4828,0.4952,0.5033,0.5075,0.5174,0.5227,0.5277,0.5371,0.5408,0.5491,0.558,0.5667,0.5723,0.581,0.5908,0.5936,0.5944,0.5944,0.5944,0.5951,0.6006,0.6011,0.5958,0.5958,0.5958,0,0,0.4742,0.4832,0.4879,0.5021,0.5095,0.5177,0.5205,0.5291,0.5352,0.5421,0.5524,0.5587,0.5691,0.5791,0.5839,0.5844,0.5971,0.5948,0.5946,0.5954,0.6009,0.6014,0.6018,0.596,0.596,0.596,0,0,0.4775,0.4852,0.4928,0.5001,0.5112,0.5177,0.5195,0.5317,0.5362,0.5466,0.5519,0.5592,0.5741,0.5814,0.587,0.5928,0.5964,0.5954,0.5956,0.6008,0.6012,0.6016,0.6037,0.6044,0.596,0.596,0.596,0,0.4756,0.4883,0.4961,0.5045,0.5105,0.5171,0.5248,0.5314,0.5448,0.5487,0.5491,0.5679,0.5754,0.5872,0.5886,0.5929,0.5951,0.5941,0.6006,0.6011,0.6015,0.6036,0.6044,0.5958,0.5958,0.5959,0.5959,0,0.4853,0.4939,0.4987,0.5115,0.5181,0.526,0.5349,0.5406,0.545,0.5514,0.5618,0.571,0.5817,0.5848,0.5891,0.5971,0.5971,0.5989,0.5994,0.6017,0.6038,0.6047,0.5955,0.5956,0.5957,0.5957,0,0,0.4852,0.5021,0.5037,0.5096,0.5222,0.5291,0.5371,0.5477,0.5524,0.5612,0.5682,0.5806,0.5823,0.5887,0.5938,0.5984,0.6024,0.5997,0.6001,0.5999,0.6117,0.6103,0.6111,0.6048,0.605,0.6051,0.6108,0,0.4903,0.5053,0.5125,0.5243,0.5324,0.5386,0.5457,0.5541,0.5602,0.5679,0.5746,0.5833,0.5849,0.5888,0.5936,0.6009,0.6049,0.6006,0.6113,0.6116,0.6086,0.6123,0.6109,0.6158,0.6117,0.6119,0.612,0,0.4983,0.5072,0.5198,0.5314,0.5351,0.5413,0.5514,0.5587,0.5683,0.5724,0.5794,0.5844,0.593,0.5928,0.6048,0.6016,0.6064,0.6106,0.611,0.6124,0.612,0.6137,0.6176,0.6183,0.6133,0.6132,0.6131,0,0.497,0.5121,0.5216,0.5264,0.5402,0.5444,0.5503,0.5598,0.5656,0.5744,0.5782,0.5878,0.5931,0.6003,0.6077,0.6069,0.6189,0.6193,0.6225,0.6223,0.6248,0.6246,0.6295,0.6277,0.6277,0.6277,0.6277,0,0.502,0.5095,0.5212,0.5271,0.5355,0.5437,0.5518,0.5581,0.5665,0.5736,0.5795,0.5859,0.5953,0.6028,0.6086,0.6176,0.6199,0.6234,0.6248,0.6229,0.6225,0.6262,0.6261,0.6279,0.6279,0.6278,0.6278,0,0.5021,0.5103,0.521,0.5331,0.5363,0.542,0.5524,0.5582,0.5645,0.5734,0.5759,0.5859,0.5951,0.6031,0.6153,0.6191,0.6283,0.6301,0.6251,0.626,0.6287,0.6283,0.6363,0.6377,0.6348,0.6348,0.6348,0,0.5048,0.5107,0.5234,0.5286,0.5344,0.5427,0.5487,0.5568,0.5627,0.574,0.5784,0.5881,0.5963,0.6106,0.6189,0.6281,0.6302,0.6323,0.6316,0.6295,0.6303,0.6298,0.6304,0.6323,0.6323,0.6323,0.6323,0,0.5087,0.5124,0.5209,0.5307,0.5376,0.5457,0.5539,0.5578,0.5674,0.5737,0.5833,0.5896,0.602,0.6115,0.6216,0.6275,0.6315,0.6325,0.6337,0.6318,0.6287,0.6305,0.6252,0.6323,0.6323,0.6323,0.6323,0.6323,0.5103,0.5158,0.5256,0.5347,0.5417,0.5492,0.5553,0.5624,0.5705,0.5814,0.5856,0.5953,0.6045,0.6186,0.6245,0.6321,0.6327,0.6345,0.635,0.6353,0.635,0.6274,0.6339,0.6339,0.6339,0.634,0.634,0,0.5145,0.5211,0.5294,0.5408,0.5479,0.551,0.5603,0.566,0.5745,0.5828,0.5908,0.6016,0.6108,0.6197,0.6292,0.6336,0.6356,0.6358,0.6356,0.6369,0.6338,0.6318,0.634,0.634,0.634,0.634,0.634,0.634,0.5176,0.527,0.5319,0.5448,0.5513,0.561,0.5659,0.5729,0.5796,0.5915,0.5992,0.6049,0.6134,0.6237,0.6321,0.6345,0.6377,0.6374,0.6403,0.6372,0.6371,0.637,0.6352,0.6381,0.6381,0.6428,0.6428,0.6428]}]]